Regional Weather Roundup
Issued by NWS Charleston, SC

Current Version | Previous Version | Text Only | Print | Product List | Glossary Off
Versions: 1 2 3 4 5 6 7 8 9 10 11 12 13 14 15 16 17 18 19 20 21 22 23 24 25 26 27 28 29 30 31 32 33 34 35 36 37 38 39 40 41 42 43 44 45 46 47 48 49 50

000
ASUS42 KCHS 152225
RWRCHS

REGIONAL WEATHER ROUNDUP
NATIONAL WEATHER SERVICE CHARLESTON SC
600 PM EDT MON SEP 15 2014

NOTE: "FAIR" INDICATES FEW OR NO CLOUDS BELOW 12,000 FEET WITH NO
SIGNIFICANT WEATHER AND/OR OBSTRUCTIONS TO VISIBILITY.

NOT ALL STATIONS ARE QUALITY CONTROLLED BY THE NATIONAL
WEATHER SERVICE. USE DATA WITH CAUTION...ESPECIALLY
DEWPOINT OBSERVATIONS.

SCZ027-030-031-034>040-042>050-152300-
...SOUTH CAROLINA...

CITY           SKY/WX    TMP DP  RH WIND       PRES   REMARKS
N CHARLESTON   LGT RAIN  76  72  87 E7        30.11F
WATERFRONT PRK   N/A     79 N/A N/A NE9G18      N/A
FORT JOHNSON   NOT AVBL
MOUNT PLEASANT RAIN      77  75  94 CALM      30.11F
JOHNS ISLAND   CLOUDY    79  79 100 CALM      30.12S FOG
PINOPOLIS        N/A     84  73  70 N6        30.05R HX  91
MONCKS CORNER    N/A     77  75  94 CALM      30.11S
SUMMERVILLE    CLOUDY    73  73 100 E6        30.12R
BEAUFORT MCAS  PTSUNNY   83  74  74 E9        30.10S
BEAUFORT ARPT  MOCLDY    81  77  89 S3        30.10S HAZE
HILTON HEAD IS PTSUNNY   79  73  83 CALM      30.12S
GEORGETOWN     NOT AVBL
WALTERBORO     PTCLDY    84  68  58 CALM      30.11S
ORANGEBURG     CLOUDY    78  71  79 E3        30.12S
BARNWELL       FAIR      79  73  83 CALM      30.12S
AIKEN          CLOUDY    73  73 100 CALM      30.16S
MANNING        CLOUDY    79  77  94 CALM      30.12R
KINGSTREE      NOT AVBL
COLUMBIA       CLOUDY    75  69  81 E3        30.12S
SUMTER         PTSUNNY   77  68  74 NE2       30.11S
FLORENCE       CLOUDY    76  70  82 SE6       30.12F
MYRTLE BEACH   CLOUDY    77  70  78 E7        30.12F
N MYRTLE BEACH CLOUDY    76  69  79 E7        30.12F

$$

GAZ063-065-086>088-099>101-113>116-118-119-134-136>141-150-152300-
...GEORGIA...

CITY           SKY/WX    TMP DP  RH WIND       PRES   REMARKS
SAVANNAH ARPT  CLOUDY    76  72  87 CALM      30.11F
HUNTER AAF     CLOUDY    75  75 100 NE2       30.08F
FORT STEWART   CLOUDY    77  74  91 NE5       30.08F
STATESBORO     NOT AVBL
SYLVANIA       MOCLDY    79  74  83 S5        30.12R
CLAXTON        NOT AVBL
THOMSON        CLOUDY    76  76  98 CALM      30.18R
AUGUSTA-BUSH   CLOUDY    76  71  85 CALM      30.11F
AUGUSTA-DANIEL CLOUDY    76  71  85 CALM      30.13S
SWAINSBORO     FAIR      84  79  84 NE3       30.11S HX  96
VIDALIA        MOSUNNY   86  73  66 NE7       30.09F HX  93
ALMA           TSTM      75  71  87 E3        30.07F FOG
WAYCROSS       CLOUDY    83  77  82 E6        30.09R HX  91
JESUP            N/A     81  77  89 SE3       30.09F
BRUNSWICK      CLOUDY    79  73  83 CALM      30.09F
SAINT SIMONS   CLOUDY    82  73  74 E8        30.09S

$$

SCZ027-028-034-036>038-045-046-048>050-GAZ119-141-152300-
...LAKE AND SUPPLEMENTAL COASTAL OBSERVATIONS...

STATION/POSITION TIME  TEMP    WIND        PRES    WAVE   SWELL
                       AIR SEA DIR/SP/G            HT/PER HT/PER/DIR
                 (UTC) (F)     (DEG/KT/KT) (MB)    (FT/S) (FT/S/D)
UPR LAKE MARION  NOT AVBL
WINYAH BAY       2200   78      90/  6     1019.0S
LAKE MURRAY      2100   74      90/  2/  3 1019.3F
ACE BASIN NERRS  2200   83        CALM     1019.0S
FORT PULASKI     2200   79     100/  2/  3 1019.6F
SAPELO ISLAND    2200   82      30/  4     1019.0F

$$

ANZ835-935-AMZ111-154-330-350-352-354-374-450-454-472-152300-
...C-MAN AND BUOY OBSERVATIONS...

STATION/POSITION TIME  TEMP    WIND        PRES    WAVE   SWELL
                       AIR SEA DIR/SP/G            HT/PER HT/PER/DIR
                 (UTC) (F)     (DEG/KT/KT) (MB)    (FT/S) (FT/S/D)
FOLLY BEACH CMAN 2200   79      90/  9/ 10 1020.0R
BUOY 41004       2200   80 83   90/ 10/ 14 1018.9F   2/ 5   2/ 9
BUOY 41008       2200   82 85   70/  6/  8 1019.1R   2/ 6   2/ 60/ 6
5E ST. MARYS GA  2200      85                N/A     2/ 6
FRYING PAN BUOY  NOT AVBL
BUOY 41025       2200   74     350/ 10/ 12 1019.9F   4/ 8   3/ 40/ 8
CAPE LOOKOUT NC  2200   75      70/  7/  8 1019.8F
BUOY 41002       2054   79 83  300/ 10/ 10 1018.9F   3/ 5   3/290/ 5
BUOY 41010       2200   83 85  170/  2/  4 1019.6S   2/ 8   2/110/ 8
BUOY 41012       NOT AVBL
ST AUGUSTINE FL  2200   80     210/ 16/ 19 1020.2R
CAPERS NEARSHORE 2100   80      90/ 12/ 16   N/A
FRIPP NEARSHORE  NOT AVBL


$$



USA.gov is the U.S. government's official web portal to all federal, state and local government web resources and services.